TimeEDT,TemperatureF,Dew PointF,Humidity,Sea Level PressureIn,VisibilityMPH,Wind Direction,Wind SpeedMPH,Gust SpeedMPH,PrecipitationIn,Events,Conditions,WindDirDegrees,DateUTC
12:37 AM,60.1,57.0,90,30.01,10.0,ESE,6.9,-,0.00,Rain,Light Rain,110,2012-10-03 04:37:00
12:53 AM,60.1,57.0,90,30.01,10.0,East,9.2,-,0.00,Rain,Light Rain,100,2012-10-03 04:53:00
1:53 AM,60.1,57.0,90,30.01,10.0,East,6.9,-,0.00,Rain,Light Rain,90,2012-10-03 05:53:00
2:53 AM,60.1,57.0,90,30.00,10.0,East,4.6,-,0.00,Rain,Light Rain,100,2012-10-03 06:53:00
3:17 AM,60.1,57.0,90,30.00,10.0,ESE,6.9,-,0.00,Rain,Light Rain,110,2012-10-03 07:17:00
3:24 AM,60.1,57.9,93,30.00,9.0,ESE,6.9,-,0.00,Rain,Light Rain,120,2012-10-03 07:24:00
3:32 AM,60.1,57.9,93,30.00,5.0,SE,4.6,-,0.00,Rain,Light Rain,130,2012-10-03 07:32:00
3:53 AM,60.1,57.9,93,30.00,7.0,ESE,6.9,-,0.00,Rain,Light Rain,120,2012-10-03 07:53:00
4:13 AM,60.1,57.9,93,30.00,8.0,ESE,9.2,-,0.00,Rain,Light Rain,110,2012-10-03 08:13:00
4:53 AM,60.1,57.9,93,30.00,7.0,ESE,6.9,-,0.00,Rain,Light Rain,120,2012-10-03 08:53:00
5:01 AM,60.1,57.9,93,30.00,7.0,SE,6.9,-,0.00,Rain,Light Rain,130,2012-10-03 09:01:00
5:25 AM,59.0,57.9,96,30.00,2.5,ESE,6.9,-,0.05,Rain,Rain,120,2012-10-03 09:25:00
5:35 AM,59.0,57.9,96,30.01,3.0,ESE,4.6,-,0.06,Rain,Light Rain,110,2012-10-03 09:35:00
5:53 AM,59.0,57.9,96,30.01,2.5,ESE,5.8,-,0.07,Rain,Light Rain,110,2012-10-03 09:53:00
6:04 AM,59.0,57.9,96,30.01,3.0,ESE,5.8,-,0.00,Rain,Light Rain,110,2012-10-03 10:04:00
6:15 AM,60.1,59.0,96,30.01,2.5,ESE,4.6,-,0.01,Rain,Light Rain,120,2012-10-03 10:15:00
6:30 AM,60.1,59.0,96,30.02,4.0,SE,4.6,-,0.01,Rain,Light Rain,140,2012-10-03 10:30:00
6:41 AM,59.0,59.0,100,30.03,2.0,SE,3.5,-,0.01,Rain,Light Rain,140,2012-10-03 10:41:00
6:53 AM,60.1,59.0,96,30.02,3.0,ESE,4.6,-,0.02,Rain,Light Rain,110,2012-10-03 10:53:00
7:44 AM,60.1,59.0,96,30.04,2.0,ESE,4.6,-,0.01,Rain,Light Rain,120,2012-10-03 11:44:00
7:53 AM,60.1,59.0,96,30.04,2.0,SE,4.6,-,0.01,Rain,Light Rain,130,2012-10-03 11:53:00
8:04 AM,60.1,59.0,96,30.04,3.0,ESE,4.6,-,0.00,Rain,Light Rain,120,2012-10-03 12:04:00
8:53 AM,61.0,59.0,93,30.05,2.5,East,6.9,-,0.01,Rain,Light Rain,100,2012-10-03 12:53:00
9:04 AM,61.0,60.1,97,30.05,4.0,ESE,4.6,-,0.00,Rain,Light Rain,120,2012-10-03 13:04:00
9:34 AM,62.1,60.1,93,30.06,10.0,ESE,6.9,-,0.00,Rain,Light Rain,120,2012-10-03 13:34:00
9:53 AM,62.1,61.0,96,30.06,10.0,ESE,6.9,-,0.00,Rain,Light Rain,120,2012-10-03 13:53:00
10:53 AM,64.0,62.1,93,30.05,10.0,ESE,5.8,-,0.00,Rain,Light Rain,110,2012-10-03 14:53:00
11:53 AM,66.0,63.0,90,30.04,10.0,East,5.8,-,0.00,Rain,Light Rain,100,2012-10-03 15:53:00
12:53 PM,66.9,64.0,90,30.05,10.0,East,5.8,-,0.00,Rain,Light Rain,100,2012-10-03 16:53:00
1:53 PM,68.0,64.0,87,30.04,10.0,Calm,Calm,-,0.00,,Overcast,0,2012-10-03 17:53:00
2:53 PM,68.0,64.0,87,30.05,10.0,Calm,Calm,-,N/A,,Overcast,0,2012-10-03 18:53:00
3:53 PM,68.0,64.0,87,30.05,10.0,Calm,Calm,-,N/A,,Overcast,0,2012-10-03 19:53:00
4:53 PM,66.9,64.9,93,30.06,7.0,NW,4.6,-,N/A,,Overcast,310,2012-10-03 20:53:00
5:53 PM,66.9,64.9,93,30.08,10.0,Calm,Calm,-,N/A,,Overcast,0,2012-10-03 21:53:00
6:53 PM,66.0,64.0,93,30.09,7.0,SE,3.5,-,N/A,,Overcast,130,2012-10-03 22:53:00
7:53 PM,64.9,63.0,93,30.10,10.0,East,3.5,-,N/A,,Overcast,80,2012-10-03 23:53:00
8:53 PM,64.9,63.0,93,30.11,8.0,Calm,Calm,-,N/A,,Overcast,0,2012-10-04 00:53:00
9:53 PM,64.9,63.0,93,30.12,8.0,Calm,Calm,-,N/A,,Overcast,0,2012-10-04 01:53:00
10:00 PM,64.9,63.0,93,30.12,8.0,ESE,3.5,-,N/A,,Overcast,110,2012-10-04 02:00:00
10:53 PM,64.9,63.0,93,30.12,7.0,Calm,Calm,-,N/A,,Overcast,0,2012-10-04 02:53:00
11:53 PM,64.9,63.0,93,30.12,8.0,Calm,Calm,-,N/A,,Overcast,0,2012-10-04 03:53:00